Regional Weather Roundup
Issued by NWS Sterling, VA

Home | Current Version | Previous Version | Graphics & Text | Print | Product List | Glossary On
Versions: 1 2 3 4 5 6 7 8 9 10 11 12 13 14 15 16 17 18 19 20 21 22 23 24 25 26 27 28 29 30 31 32 33 34 35 36 37 38 39 40 41 42 43 44 45 46 47 48 49 50
000
ASUS41 KLWX 260710
RWRLWX

REGIONAL WEATHER ROUNDUP
NATIONAL WEATHER SERVICE BALTIMORE MD/WASHINGTON DC
200 AM EST WED NOV 26 2014

Note: "FAIR" indicates few or no clouds below 12,000 feet
with no significant weather and/or obstructions to visibility.
 TC=TEMPERATURE CELSIUS

 * =Non NWS site. Station does not report precipitation (e.g. rain,
    snow, etc.), thunder, or fog.

DCZ001-MDZ009-015-VAZ040>042-051-053>054-260800-
WASHINGTON METRO

CITY           SKY/WX    TMP DP  RH WIND       PRES   REMARKS
WASHINGTON NAT CLOUDY    49  38  65 CALM      30.16S
DULLES         CLOUDY    43  38  82 CALM      30.14F
ANDREWS AFB    CLOUDY    48  35  59 NE6       30.14S
FT BELVOIR     CLOUDY    47  38  71 VRB1      30.14F
QUANTICO       LGT RAIN  47  41  80 CALM      30.13F
COLLEGE PARK*  CLOUDY    46  36  66 CALM      30.15S
LEESBURG*      CLOUDY    45  36  70 MISG      30.14F
MANASSAS*      CLOUDY    46  39  76 N9        30.12F
GAITHERSBURG*  CLOUDY    43  36  75 CALM      30.18S

$$

MDZ006>007-011-014-260800-
BALTIMORE METRO

CITY           SKY/WX    TMP DP  RH WIND       PRES   REMARKS
BWI AIRPORT    CLOUDY    45  36  70 CALM      30.16R
MD SCIENCE CTR   N/A     49  37  63 MISG      30.17S
MARTIN STATE   CLOUDY    43  41  93 CALM      30.19R
ANNAPOLIS      CLOUDY    48  37  65 CALM      30.15S
FORT MEADE*    CLOUDY    43  36  75 CALM      30.19R

$$

MDZ012-015-019>023-260800-
MARYLAND EASTERN SHORE

CITY           SKY/WX    TMP DP  RH WIND       PRES   REMARKS
OCEAN CITY     LGT RAIN  49  41  74 NE8       30.11F
SALISBURY      LGT RAIN  49  40  71 N7        30.13S
BAY BRIDGE AP*   N/A     46  36  66 CALM      30.16S
CAMBRIDGE*     CLOUDY    48  41  76 NE5       30.13R
EASTON*        DRIZZLE   50  38  62 NE5       30.17S

$$

MDZ017>025-260800-
SOUTHERN MARYLAND

CITY           SKY/WX    TMP DP  RH WIND       PRES   REMARKS
PATUXENT RIVER LGT RAIN  47  41  80 NE7       30.12F
ST INIGOES     LGT RAIN  47  42  83 NE5       30.11F
LEONARDTOWN*   CLOUDY    45  41  87 CALM      30.14S

$$

MDZ003>005-260800-
NORTH CENTRAL MARYLAND

CITY           SKY/WX    TMP DP  RH WIND       PRES   REMARKS
FREDERICK*     CLOUDY    41  32  70 CALM      30.19R
HAGERSTOWN APT CLOUDY    43  30  60 N7        30.15F
WESTMINSTER*   CLOUDY    41  32  70 CALM      30.16R

$$

MDZ501>502-260800-
WESTERN MARYLAND

CITY           SKY/WX    TMP DP  RH WIND       PRES   REMARKS
OAKLAND*       CLOUDY    30  30 100 NE3       30.07F
CUMBERLAND*    CLOUDY    41  28  60 N5        30.19S

$$

VAZ025>031-260800-
SHENANDOAH VALLEY

CITY           SKY/WX    TMP DP  RH WIND       PRES   REMARKS
WINCHESTER*    CLOUDY    43  27  52 NE3       30.12F
FRONT ROYAL*   CLOUDY    39  32  75 NW3       30.11F
LURAY*         CLOUDY    41  36  81 SE5       30.10F
NEW MARKET*    CLOUDY    37  34  87 CALM      30.09F
STAUNTON*      MIX PCPN  40  33  76 CALM      30.09F
WAYNESBORO*    CLOUDY    40  36  86 CALM      30.07F

$$

WVZ021-048>050-054>055-260800-
EASTERN WEST VIRGINIA PANHANDLE

CITY           SKY/WX    TMP DP  RH WIND       PRES   REMARKS
MARTINSBURG    CLOUDY    43  29  57 N7        30.14F
PETERSBURG*    CLOUDY    37  32  80 CALM      30.14S

$$

VAZ036>039-050-260800-
CENTRAL FOOTHILLS

CITY           SKY/WX    TMP DP  RH WIND       PRES   REMARKS
CHARLOTTESVILL LGT RAIN  45  38  76 N9        30.09
CULPEPER*      DRIZZLE   45  41  87 N5        30.12F
ORANGE*        DRIZZLE   46  41  81 NW5       30.11F
GORDONSVILLE*  CLOUDY    44  40  87 CALM      30.09F
WARRENTON*     DRIZZLE   46  43  87 N3        30.11F

$$

VAZ055>057-260800-
NORTH AND CENTRAL PIEDMONT

CITY           SKY/WX    TMP DP  RH WIND       PRES   REMARKS
FREDERICKSBRG* DRIZZLE   49  41  74 CALM      30.09F
STAFFORD*      LGT RAIN  47  36  65 CALM      30.14F

$$

NCZ024-NYZ072-PAZ021-071-VAZ022-071-260800-
OTHER REGIONAL OBSERVATIONS

CITY           SKY/WX    TMP DP  RH WIND       PRES   REMARKS
NEW YORK CITY  CLOUDY    51  27  39 W6        30.19R
PHILADELPHIA   CLOUDY    46  37  71 N3        30.19S
PITTSBURGH     MOCLDY    31  25  78 CALM      30.15F
ROANOKE        LGT RAIN  43  37  79 N7        30.07F
RICHMOND       LGT RAIN  48  44  86 N7        30.08F
RALEIGH        HVY RAIN  49  46  90 N6        29.97F VSB 1

$$

ANZ530>537-260800-
MARINE OBSERVATIONS

STATION/POSITION TIME  TEMP    WIND        PRES
                       AIR SEA DIR/SP/G
                 (UTC) (F)     (DEG/KT/KT) (MB)
THOMAS PT LIGHT  0700   48 48   10/ 14/ 15 1021.2F
BALT KEY BRIDGE  0700   46      20/  3/  4 1021.4R
COVE POINT       0700   49      40/  5/  6 1020.1R
LEWISETTA        0700   49 50   50/  5/  8 1019.2F
SOLOMONS ISLAND  0700      50                N/A
PINEY POINT      0700           50/  4/  5   N/A

$$



USA.gov is the U.S. government's official web portal to all federal, state and local government web resources and services.